{"data":{"norad_id":66087,"epoch":"2026-09-20T05:22:33.301056Z","epoch_age_seconds":126997,"freshness":"FRESH","line1":"1 66087U 25236B   26263.22399654  .00011965  00000+0  36468-3 0  9995","line2":"2 66087  53.1592 277.0933 0001447  85.5783 274.5385 15.34402003 52718","mean_motion":15.34402003,"eccentricity":0.0001447,"inclination_deg":53.1592,"raan_deg":277.0933,"arg_perigee_deg":85.5783,"mean_anomaly_deg":274.5385,"bstar":0.00036468,"rev_number":5271,"period_min":93.847635572984,"perigee_km":461.70741815416,"apogee_km":463.68715559678,"semimajor_km":6840.8342868755,"source":"CELESTRAK","updated_at":"2026-09-21T09:00:35.800161Z"}}